Regional Weather Roundup
Issued by NWS

Home | Current Version | Previous Version | Text Only | Print | Product List | Glossary On
Versions: 1 2 3 4 5 6 7 8 9 10 11 12 13 14 15 16 17 18 19 20 21 22 23 24 25 26 27 28 29 30 31 32 33 34 35 36 37 38 39 40 41 42 43 44 45 46 47 48 49 50
000
ASUS43 KLMK 310802
RWRKY
KENTUCKY REGIONAL WEATHER ROUNDUP
NATIONAL WEATHER SERVICE LOUISVILLE KY
400 AM EDT MON AUG 31 2015

NOTE "FAIR" INDICATES FEW OR NO CLOUDS BELOW 12,000 FEET
WITH NO SIGNIFICANT WEATHER AND/OR OBSTRUCTIONS TO VISIBILITY.

KYZ001>023-026-027-061>063-070>075-310900-
WESTERN AND SOUTH CENTRAL KENTUCKY

CITY           SKY/WX    TMP DP  RH WIND       PRES   REMARKS
PADUCAH        CLEAR     67  65  93 E3        30.04S FOG
HENDERSON      CLEAR     64  61  88 CALM      30.05R
OWENSBORO      CLEAR     68  67  96 CALM      30.07S
HOPKINSVILLE   CLEAR     67  66  96 SE5       30.06S
BOWLING GREEN  CLEAR     64  61  90 CALM      30.08F
GLASGOW        CLEAR     62  62 100 CALM      30.09F
$$

KYZ024-025-028>034-038-045-046-053-310900-
NORTH CENTRAL KENTUCKY

CITY           SKY/WX    TMP DP  RH WIND       PRES   REMARKS
LOUISVILLE/SDF MOCLDY    71  66  84 CALM      30.07S
LOUISVILLE/LOU PTCLDY    70  67  90 CALM      30.08S
FORT KNOX      CLEAR     65  64  96 CALM      30.07R
$$

KYZ035>037-039>044-047>052-055>060-089>105-310900-
NORTHEAST KENTUCKY

CITY           SKY/WX    TMP DP  RH WIND       PRES   REMARKS
LEXINGTON      CLEAR     68  64  87 CALM      30.09F
COVINGTON      PTCLDY    69  66  90 CALM      30.08F
FRANKFORT      CLEAR     66  64  93 CALM      30.08S
$$

KYZ054-064>069-076>088-106>120-310900-
SOUTHEAST KENTUCKY

CITY           SKY/WX    TMP DP  RH WIND       PRES   REMARKS
JACKSON        MOCLDY    69  66  90 CALM      30.11F
LONDON         PTCLDY    69  63  81 SW3       30.11F
SOMERSET       NOT AVBL
MIDDLESBORO    PTCLDY    65  64  97 CALM      30.13S
MONTICELLO     SUNNY     63  63 100 CALM      30.13S FOG
$$




USA.gov is the U.S. government's official web portal to all federal, state and local government web resources and services.